Weather reports worldwide

Advertisment
Zwiesel, Germany (10796): temperature & dewpoint: 15.06.2018 23:00:00 - 21.06.2018 23:00:00 (CEST)Zwiesel, Germany (10796): temperature 5cm & temperature -5cm: 15.06.2018 23:00:00 - 21.06.2018 23:00:00 (CEST)Zwiesel, Germany (10796): temperature -20cm & temperature -100cm: 15.06.2018 23:00:00 - 21.06.2018 23:00:00 (CEST)Zwiesel, Germany (10796): wind speed & gusts: 15.06.2018 23:00:00 - 21.06.2018 23:00:00 (CEST)Zwiesel, Germany (10796): wind direction: 15.06.2018 23:00:00 - 21.06.2018 23:00:00 (CEST)Zwiesel, Germany (10796): reduced air pressure: 15.06.2018 23:00:00 - 21.06.2018 23:00:00 (CEST)Zwiesel, Germany (10796): visibility: 15.06.2018 23:00:00 - 21.06.2018 23:00:00 (CEST)Zwiesel, Germany (10796): sunshine duration: 15.06.2018 23:00:00 - 21.06.2018 23:00:00 (CEST)Zwiesel, Germany (10796): precipitation: 15.06.2018 23:00:00 - 21.06.2018 23:00:00 (CEST)
Date & Time tt [°C] td [°C] tt 5cm [°C] tt -5cm [°C] tt -20cm [°C] tt -100cm [°C] ff [km/h] ff [kn] fx [km/h] fx [kn] dd ppp [hPa] vv [km] sd [min] rr [mm]
21.06.2018 23:00:00 16,4 9,3 15,5 22,1 21,5 14,8 11 6 29 16 N 1016,1 48 0 0,0
21.06.2018 22:00:00 17,6 8,7 16,4 23,3 21,7 14,8 13 7 26 14 WNW 1015,3 57 0 0,0
21.06.2018 21:00:00 19,7 11,1 19,4 24,7 21,7 14,8 14 8 44 24 WNW 1014,0 60 6 0,0
21.06.2018 20:00:00 21,7 11,4 22,3 25,8 21,6 14,8 13 7 32 18 NW 1012,2 56 34 0,0
21.06.2018 19:00:00 22,1 9,1 22,2 26,9 21,5 14,8 18 10 41 22 WNW 1011,6 49 56 0,0
21.06.2018 18:00:00 24,1 8,5 26,2 27,5 21,2 14,8 18 10 41 22 WNW 1010,9 32 58 0,0
21.06.2018 17:00:00 24,6 11,5 26,6 27,8 20,8 14,8 27 15 42 23 W 1010,7 21 44 0,0
21.06.2018 16:00:00 25,6 11,8 26,4 28,3 20,3 14,8 24 13 40 22 W 1010,0 31 27 0,0
21.06.2018 15:00:00 26,3 13,1 28,4 28,6 19,7 14,8 18 10 40 21 SW 1009,8 70 55 0,0
21.06.2018 14:00:00 25,6 15,0 29,9 26,8 19,3 14,8 19 10 36 20 WSW 1010,9 21 58 0,0
21.06.2018 13:00:00 25,1 13,9 29,6 25,1 18,8 14,8 18 10 29 16 WSW 1011,7 26 17 0,0
21.06.2018 12:00:00 24,6 13,7 27,5 25,1 18,4 14,8 9 5 24 13 SW 1012,3 29 38 0,0
21.06.2018 11:00:00 24,3 14,2 28,2 23,2 18,1 14,8 10 5 19 10 WSW 1012,7 2,2 60 0,0
21.06.2018 10:00:00 23,5 14,0 26,9 21,2 18,0 14,8 4 2 8 5 W 1013,5 5 60 0,0
21.06.2018 09:00:00 20,9 14,7 24,0 19,1 18,1 14,8 2 1 5 3 WSW 1014,7 38 60 0,0
21.06.2018 08:00:00 17,1 12,6 20,1 17,4 18,3 14,8 2 1 4 2 W 1016,1 22 60 0,0
21.06.2018 07:00:00 13,6 11,5 13,9 16,5 18,6 14,8 0 0 3 2 N 1017,3 14 36 0,0
21.06.2018 06:00:00 11,6 11,0 10,5 16,7 19,0 14,8 2 1 5 3 N 1018,1 9 0 0,0
21.06.2018 05:00:00 11,8 11,2 9,6 17,3 19,3 14,8 3 1 7 4 N 1018,2 7 0 0,0
21.06.2018 04:00:00 12,2 11,5 10,5 17,9 19,6 14,8 2 1 5 3 SSW 1018,5 11 0 0,0
21.06.2018 03:00:00 12,4 11,5 10,7 18,6 20,0 14,7 2 1 8 4 E 1018,9 12 0 0,0
21.06.2018 02:00:00 13,3 12,0 11,7 19,4 20,3 14,7 3 2 6 3 ESE 1019,3 18 0 0,0
21.06.2018 01:00:00 14,0 12,2 12,1 20,3 20,6 14,7 4 2 8 5 E 1019,6 19 0 0,0
21.06.2018 00:00:00 15,6 13,2 13,5 21,3 20,9 14,7 5 3 8 4 NNE 1019,6 27 0 0,0
20.06.2018 23:00:00 16,3 13,7 13,8 22,5 21,1 14,7 4 2 5 3 N 1019,5 34 0 0,0
20.06.2018 22:00:00 18,2 14,1 15,2 23,9 21,1 14,7 2 1 8 4 WSW 1018,8 40 0 0,0
20.06.2018 21:00:00 20,3 13,9 18,4 25,5 21,0 14,7 4 2 6 4 NNW 1018,0 39 52 0,0
20.06.2018 20:00:00 24,5 12,4 25,5 26,7 20,7 14,7 3 2 8 4 W 1017,1 51 60 0,0
20.06.2018 19:00:00 24,3 11,7 30,2 27,4 20,4 14,7 6 3 14 8 SE 1017,6 25 60 0,0
20.06.2018 18:00:00 25,0 12,8 31,9 27,2 20,0 14,7 7 4 11 6 SW 1017,7 31 60 0,0
20.06.2018 17:00:00 24,2 11,5 30,0 26,6 19,6 14,7 4 2 11 6 ESE 1018,7 40 16 0,0
20.06.2018 16:00:00 23,8 12,7 29,7 26,3 19,1 14,7 8 5 16 9 ESE 1019,3 11 28 0,0
20.06.2018 15:00:00 23,1 12,6 27,8 25,8 18,7 14,7 7 4 16 9 ESE 1019,9 31 9 0,0
20.06.2018 14:00:00 23,0 12,3 29,2 25,0 18,3 14,7 9 5 18 10 ESE 1020,2 14 27 0,0
20.06.2018 13:00:00 23,8 14,1 30,5 23,9 17,9 14,7 8 5 16 8 SE 1020,6 11 19 0,0
20.06.2018 12:00:00 23,2 13,3 30,7 22,5 17,6 14,7 8 4 16 9 SSE 1021,1 22 30 0,0
20.06.2018 11:00:00 21,7 13,8 24,7 21,3 17,4 14,7 4 2 10 5 E 1021,6 19 15 0,0
20.06.2018 10:00:00 20,7 13,0 23,2 20,3 17,3 14,7 7 4 11 6 ESE 1022,2 37 53 0,0
20.06.2018 09:00:00 19,6 13,8 21,6 18,8 17,3 14,7 4 2 7 4 NW 1022,6 36 12 0,0
20.06.2018 08:00:00 17,8 13,8 19,4 17,8 17,4 14,7 4 2 8 4 E 1023,2 42 4 0,0
20.06.2018 07:00:00 16,2 13,6 16,7 17,5 17,5 14,7 3 1 5 3 NNE 1023,7 29 0 0,0
20.06.2018 06:00:00 15,5 13,6 15,2 17,5 17,6 14,7 3 1 6 3 N 1023,8 18 0 0,0
20.06.2018 05:00:00 15,4 13,8 15,0 17,7 17,8 14,7 4 2 4 2 N 1023,8 22 0 0,0
20.06.2018 04:00:00 15,6 13,9 15,5 17,9 17,9 14,7 3 2 9 5 NNW 1023,7 27 0 0,0
20.06.2018 03:00:00 15,9 14,0 15,4 18,2 18,0 14,7 0 0 5 3 N 1023,9 22 0 0,0
20.06.2018 02:00:00 16,2 14,0 15,7 18,5 18,1 14,7 4 2 7 4 NE 1024,0 24 0 0,0
20.06.2018 01:00:00 16,6 14,1 16,2 18,8 18,3 14,7 4 2 10 5 N 1023,9 31 0 0,0
20.06.2018 00:00:00 16,7 14,3 16,4 19,1 18,3 14,7 0 0 5 3 N 1024,1 29 0 0,0
19.06.2018 23:00:00 17,2 14,2 16,7 19,6 18,4 14,7 1 1 5 3 SSW 1023,9 33 0 0,0
19.06.2018 22:00:00 18,0 14,2 17,2 20,0 18,4 14,7 2 1 5 3 SSE 1023,6 34 0 0,0
19.06.2018 21:00:00 18,9 13,7 18,6 20,5 18,4 14,7 3 2 9 5 SW 1022,8 38 0 0,0
19.06.2018 20:00:00 19,7 13,4 19,8 21,0 18,3 14,7 6 3 11 6 W 1022,6 15 1 0,0
19.06.2018 19:00:00 20,3 12,9 21,5 21,3 18,2 14,7 6 3 14 7 WSW 1022,6 43 0 0,0
19.06.2018 18:00:00 20,4 13,0 22,5 21,3 18,0 14,7 5 3 10 6 SW 1022,6 43 1 0,0
19.06.2018 17:00:00 20,0 12,6 22,3 21,0 17,9 14,7 6 3 16 9 WSW 1022,9 40 0 0,0
19.06.2018 16:00:00 20,0 12,3 22,3 20,7 17,8 14,6 3 1 11 6 ESE 1023,1 48 0 0,0
19.06.2018 15:00:00 18,7 12,1 19,7 20,5 17,6 14,6 8 4 18 10 WSW 1023,8 43 0 0,0
19.06.2018 14:00:00 19,1 12,3 21,6 20,2 17,5 14,6 11 6 18 10 WSW 1023,6 47 0 0,0
19.06.2018 13:00:00 18,7 11,9 20,3 19,8 17,4 14,6 9 5 16 9 W 1023,9 40 0 0,0
19.06.2018 12:00:00 18,2 11,3 19,0 19,9 17,2 14,6 10 5 23 12 WNW 1023,8 41 1 0,0
19.06.2018 11:00:00 18,3 11,0 19,9 19,6 17,1 14,6 17 9 24 13 W 1023,7 41 0 0,0
19.06.2018 10:00:00 18,7 11,2 20,9 19,3 17,0 14,6 13 7 29 16 W 1023,4 43 22 0,0
19.06.2018 09:00:00 18,3 11,2 22,4 18,0 17,0 14,6 4 2 8 4 SE 1023,4 18 60 0,0
19.06.2018 08:00:00 15,4 10,0 17,9 16,5 17,2 14,6 2 1 5 3 W 1024,0 28 60 0,0
19.06.2018 07:00:00 12,6 9,7 13,0 15,7 17,4 14,6 3 2 6 4 N 1024,6 22 23 0,0
19.06.2018 06:00:00 11,4 10,4 11,8 15,7 17,7 14,6 2 1 5 3 SSW 1024,7 21 0 0,0
19.06.2018 05:00:00 11,1 10,2 11,1 15,8 18,0 14,6 0 0 6 3 N 1024,2 16 0 0,0
19.06.2018 04:00:00 10,3 9,6 10,2 15,9 18,3 14,6 1 1 5 3 NW 1024,4 18 0 0,0
19.06.2018 03:00:00 10,6 9,8 8,5 16,6 18,6 14,6 2 1 5 3 S 1024,4 19 0 0,0
19.06.2018 02:00:00 11,7 10,5 9,1 17,4 18,9 14,6 2 1 4 2 SE 1024,1 30 0 0,0
19.06.2018 01:00:00 12,3 10,7 9,8 18,3 19,2 14,6 2 1 6 3 NNW 1023,9 34 0 0,0
19.06.2018 00:00:00 13,6 11,3 11,0 19,3 19,4 14,6 2 1 4 2 E 1023,5 43 0 0,0
18.06.2018 23:00:00 15,2 12,0 13,0 20,1 19,6 14,6 3 1 6 3 NE 1022,9 45 0 0,0
18.06.2018 22:00:00 16,3 12,2 15,3 20,9 19,7 14,6 3 2 4 2 NNE 1022,0 63 0 0,0
18.06.2018 21:00:00 17,4 11,9 16,3 21,9 19,8 14,6 0 0 8 5 N 1020,9 69 0 0,0
18.06.2018 20:00:00 19,4 10,7 19,2 22,6 19,8 14,6 5 3 14 8 NNW 1020,3 70 1 0,0
18.06.2018 19:00:00 20,0 10,6 20,6 23,3 19,6 14,6 6 4 20 11 WNW 1020,0 66 0 0,0
18.06.2018 18:00:00 20,1 10,1 21,0 24,2 19,4 14,6 11 6 21 11 W 1020,0 70 0 0,0
18.06.2018 17:00:00 20,8 11,0 23,5 24,8 19,1 14,6 9 5 23 12 W 1019,8 64 10 0,0
18.06.2018 16:00:00 20,2 10,2 22,0 25,5 18,6 14,6 13 7 28 15 W 1020,1 43 11 0,0
18.06.2018 15:00:00 21,4 10,7 27,0 25,4 18,1 14,6 16 9 28 15 W 1019,6 28 52 0,0
18.06.2018 14:00:00 21,3 10,7 27,6 24,1 17,7 14,6 11 6 26 14 WSW 1019,7 30 52 0,0
18.06.2018 13:00:00 19,9 9,7 23,8 22,8 17,3 14,6 14 8 24 13 WSW 1020,4 48 37 0,0
18.06.2018 12:00:00 20,1 10,5 25,8 21,8 17,0 14,6 12 6 40 21 WSW 1020,5 22 52 0,0
18.06.2018 11:00:00 19,6 10,3 24,6 20,3 16,8 14,6 12 6 22 12 W 1020,6 16 54 0,0
18.06.2018 10:00:00 17,9 10,4 20,7 19,0 16,8 14,6 13 7 26 14 W 1020,9 30 43 0,0
18.06.2018 09:00:00 17,5 11,2 21,2 17,6 16,8 14,6 6 3 11 6 E 1020,3 43 60 0,0
18.06.2018 08:00:00 15,2 10,2 17,9 16,1 17,0 14,6 3 1 6 3 SE 1020,9 34 27 0,0
18.06.2018 07:00:00 12,5 11,2 12,7 15,8 17,2 14,6 2 1 4 2 S 1021,4 25 0 0,0
18.06.2018 06:00:00 11,9 11,0 11,7 15,9 17,4 14,6 3 1 4 2 SSW 1021,5 15 0 0,0
18.06.2018 05:00:00 11,6 10,6 11,2 16,1 17,6 14,6 3 2 8 4 N 1021,2 15 0 0,0
18.06.2018 04:00:00 12,2 11,0 11,7 16,4 17,9 14,6 5 3 8 4 ESE 1020,8 20 0 0,0
18.06.2018 03:00:00 12,0 11,0 11,5 16,7 18,1 14,6 0 0 5 3 N 1020,8 12 0 0,0
18.06.2018 02:00:00 12,4 11,1 11,9 17,1 18,4 14,6 4 2 6 3 SE 1020,4 17 0 0,0
18.06.2018 01:00:00 13,1 11,5 11,7 17,5 18,7 14,6 4 2 10 6 NNE 1020,0 19 0 0,0
18.06.2018 00:00:00 13,1 11,6 10,3 18,3 19,0 14,6 2 1 6 3 NW 1019,9 21 0 0,0
17.06.2018 23:00:00 14,2 11,9 11,0 19,2 19,2 14,6 3 1 10 6 W 1019,1 26 0 0,0
17.06.2018 22:00:00 15,9 12,0 14,0 20,3 19,3 14,6 4 2 14 8 NNE 1018,2 43 0 0,0
17.06.2018 21:00:00 17,7 12,8 17,3 21,1 19,4 14,6 9 5 21 11 N 1017,0 40 13 0,0
17.06.2018 20:00:00 18,4 12,3 18,3 22,1 19,4 14,6 11 6 27 15 N 1016,4 45 0 0,0
17.06.2018 19:00:00 19,3 12,4 20,0 23,0 19,3 14,6 11 6 21 11 N 1015,9 40 6 0,0
17.06.2018 18:00:00 19,7 11,9 21,3 23,4 19,1 14,6 6 3 25 14 N 1015,7 39 0 0,0
17.06.2018 17:00:00 18,9 11,7 21,0 24,1 18,8 14,6 14 7 40 22 NNW 1015,9 28 6 0,0
17.06.2018 16:00:00 22,9 10,1 24,4 25,2 18,4 14,6 10 5 26 14 W 1014,2 44 38 0,0
17.06.2018 15:00:00 24,1 12,0 29,6 24,5 18,0 14,6 12 6 22 12 W 1014,1 21 40 0,0
17.06.2018 14:00:00 22,9 11,0 27,7 23,8 17,6 14,6 13 7 26 14 WSW 1014,5 16 48 0,0
17.06.2018 13:00:00 22,3 11,0 25,7 23,2 17,2 14,6 15 8 23 12 W 1015,0 18 43 0,0
17.06.2018 12:00:00 22,5 10,9 27,1 21,7 16,9 14,6 15 8 23 12 W 1015,0 17 17 0,0
17.06.2018 11:00:00 22,1 8,9 25,4 21,3 16,7 14,6 12 6 21 11 W 1015,3 6 60 0,0
17.06.2018 10:00:00 21,6 10,9 24,7 19,5 16,5 14,6 4 2 9 5 S 1015,3 16 60 0,0
17.06.2018 09:00:00 18,6 11,2 21,1 17,6 16,6 14,6 2 1 5 3 W 1016,0 21 58 0,0
17.06.2018 08:00:00 15,6 11,0 17,8 16,1 16,8 14,6 2 1 5 3 NNW 1016,7 21 60 0,0
17.06.2018 07:00:00 12,2 10,6 12,7 15,5 17,0 14,6 3 1 5 3 SE 1017,5 10 15 0,0
17.06.2018 06:00:00 11,2 10,2 10,7 15,7 17,2 14,6 0 0 5 3 N 1017,4 8 0 0,0
17.06.2018 05:00:00 11,4 9,9 11,0 16,0 17,5 14,6 4 2 5 3 ESE 1017,3 10 0 0,0
17.06.2018 04:00:00 11,7 9,9 10,8 16,4 17,8 14,6 5 3 6 3 ESE 1017,3 12 0 0,0
17.06.2018 03:00:00 11,9 10,2 10,8 16,9 18,1 14,6 3 2 8 4 E 1017,5 13 0 0,0
17.06.2018 02:00:00 12,4 9,9 10,7 17,7 18,3 14,7 5 3 8 4 N 1017,5 17 0 0,0
17.06.2018 01:00:00 13,9 11,1 12,7 18,4 18,6 14,7 2 1 13 7 E 1017,0 16 0 0,0
17.06.2018 00:00:00 14,6 10,5 13,4 19,0 18,8 14,7 2 1 12 6 N 1016,7 23 0 0,0
16.06.2018 23:00:00 15,3 11,2 13,7 19,9 19,0 14,7 3 2 8 4 NNE 1016,3 28 0 0,0
16.06.2018 22:00:00 16,1 11,7 13,6 21,1 19,0 14,7 4 2 10 5 NNW 1015,6 35 0 0,0
16.06.2018 21:00:00 18,3 11,9 17,1 22,2 19,0 14,7 5 3 10 6 NE 1014,4 40 0 0,0
16.06.2018 20:00:00 20,8 10,4 19,6 23,3 18,9 14,7 3 2 9 5 E 1013,4 48 27 0,0
16.06.2018 19:00:00 22,0 9,4 23,9 24,1 18,6 14,7 6 4 12 7 NW 1013,2 42 27 0,0
16.06.2018 18:00:00 23,2 8,9 27,2 24,4 18,3 14,7 5 3 10 6 NW 1012,9 47 28 0,0
16.06.2018 17:00:00 22,0 7,8 23,2 25,2 17,8 14,7 4 2 18 10 E 1013,5 52 34 0,0
16.06.2018 16:00:00 23,4 7,8 30,4 25,0 17,3 14,7 5 3 14 7 SSW 1013,3 42 45 0,0
16.06.2018 15:00:00 22,9 8,8 28,2 24,4 16,7 14,7 4 2 10 5 E 1013,7 54 42 0,0
16.06.2018 14:00:00 22,3 9,1 27,9 23,8 16,2 14,7 7 4 14 8 NNE 1014,3 52 59 0,0
16.06.2018 13:00:00 22,1 7,9 28,9 21,7 15,8 14,7 6 3 13 7 SSE 1014,8 28 54 -
16.06.2018 12:00:00 19,9 8,2 22,1 19,8 15,5 14,7 10 5 15 8 SW 1015,6 27 20 -
16.06.2018 11:00:00 19,5 8,5 21,0 18,9 15,2 14,7 4 2 15 8 SW 1015,7 22 19 -
16.06.2018 10:00:00 19,5 9,2 21,9 17,7 15,0 14,7 3 2 10 5 NNW 1015,6 43 51 -
16.06.2018 09:00:00 17,5 9,4 20,0 15,5 15,1 14,7 2 1 6 3 W 1016,4 35 60 -
16.06.2018 08:00:00 14,2 8,7 16,8 13,7 15,3 14,7 3 2 4 2 S 1017,2 25 60 -
16.06.2018 07:00:00 10,9 8,3 11,5 12,7 15,6 14,7 3 1 6 3 ESE 1018,3 14 47 -
16.06.2018 06:00:00 7,6 6,7 6,6 12,7 15,9 14,8 2 1 11 6 NNW 1019,0 6 0 -
16.06.2018 05:00:00 7,4 6,6 5,9 13,2 16,2 14,8 4 2 8 4 NE 1019,1 7 0 -
16.06.2018 04:00:00 7,9 7,0 6,5 13,8 16,6 14,8 5 3 8 4 ESE 1018,9 10 0 -
16.06.2018 03:00:00 8,6 7,6 7,0 14,5 16,9 14,8 4 2 8 4 SSW 1019,1 10 0 -
16.06.2018 02:00:00 9,5 8,3 7,5 15,2 17,2 14,8 4 2 7 4 E 1019,0 12 0 -
16.06.2018 01:00:00 10,6 8,7 8,2 16,1 17,5 14,8 0 0 5 3 N 1018,6 18 0 -
16.06.2018 00:00:00 11,4 9,2 8,6 17,0 17,7 14,8 4 2 5 3 N 1018,4 21 0 -
15.06.2018 23:00:00 12,9 9,5 10,0 18,0 17,9 14,8 4 2 10 5 SE 1017,8 31 0 -

tt = temperature
td = dewpoint
tt 5cm = temperature 5cm
tt -5cm = temperature -5cm
tt -20cm = temperature -20cm
tt -100cm = temperature -100cm
ff = wind speed
fx = gusts
dd = wind direction
ppp = reduced air pressure
vv = visibility
sd = sunshine duration
rr = precipitation

Next stations